{"data":{"norad_id":61955,"epoch":"2026-09-21T09:16:07.209120Z","epoch_age_seconds":109067,"freshness":"FRESH","line1":"1 61955U 24209S   26264.38619455  .00023737  00000+0  71132-3 0  9992","line2":"2 61955  53.1605 303.8279 0001239  82.2915 277.8228 15.34405137105007","mean_motion":15.34405137,"eccentricity":0.0001239,"inclination_deg":53.1605,"raan_deg":303.8279,"arg_perigee_deg":82.2915,"mean_anomaly_deg":277.8228,"bstar":0.00071132,"rev_number":10500,"period_min":93.847443890564,"perigee_km":461.8403937891,"apogee_km":463.53555021716,"semimajor_km":6840.8249720031,"source":"CELESTRAK","updated_at":"2026-09-22T09:00:49.456845Z"}}